GW4397 Weather Reports


time (UTC)temp
F
wind
direction
speed
knots
gust
knots
rain 1hr
in
rain 24hr
in
rain mn
in
humidity
%
barometer
mb
20260506033042 53 323 0.9 6.1 0.00 0.00 0.00 61 1016.8
20260506031537 54 267 1.7 5.2 0.00 0.00 0.00 60 1016.7
20260506030038 55 269 1.7 4.3 0.00 0.00 0.00 59 1016.5
20260506024545 56 202 0.9 7.0 0.00 0.00 0.00 57 1016.4
20260506023044 56 271 0.9 7.8 0.00 0.00 0.00 54 1016.2
20260506021541 57 232 2.6 4.3 0.00 0.00 0.00 54 1016.2
20260506020039 57 314 2.6 8.7 0.00 0.00 0.00 56 1016.2
20260506014538 58 233 2.6 6.1 0.00 0.00 0.00 54 1015.9
20260506013043 59 214 2.6 7.0 0.00 0.00 0.00 53 1015.7
20260506011540 60 240 1.7 7.0 0.00 0.00 0.00 55 1015.7
20260506010038 59 196 2.6 7.0 0.00 0.00 0.00 56 1015.7
20260506004537 59 221 3.5 8.7 0.00 0.00 0.00 57 1015.7
20260506003038 59 257 3.5 9.6 0.00 0.00 0.00 57 1015.7
20260506001542 61 293 4.3 7.8 0.00 0.00 0.00 54 1015.7
20260506000042 62 269 2.6 7.8 0.00 0.00 0.00 54 1015.6
20260505234544 64 341 1.7 3.5 0.00 0.00 0.00 52 1015.4
20260505233042 60 188 3.5 8.7 0.00 0.00 0.00 59 1015.4
20260505231544 62 193 5.2 8.7 0.00 0.00 0.00 56 1015.4
20260505230053 62 159 2.6 7.0 0.00 0.00 0.00 53 1015.2
20260505224537 62 202 2.6 7.0 0.00 0.00 0.00 53 1015.3
20260505223039 62 220 4.3 9.6 0.00 0.00 0.00 54 1015.3
20260505221545 62 182 5.2 12.2 0.00 0.00 0.00 54 1015.3
20260505220046 63 211 4.3 8.7 0.00 0.00 0.00 55 1015.1
20260505214544 62 176 5.2 10.4 0.00 0.00 0.00 54 1015.2
20260505213053 64 157 3.5 8.7 0.00 0.00 0.00 53 1015.1
20260505211539 64 175 2.6 8.7 0.00 0.00 0.00 55 1015.0
20260505210043 65 237 4.3 8.7 0.00 0.00 0.00 53 1014.7
20260505204542 65 213 3.5 7.8 0.00 0.00 0.00 54 1014.5
20260505203039 64 168 3.5 7.0 0.00 0.00 0.00 53 1014.4
20260505201543 64 166 1.7 7.0 0.00 0.00 0.00 54 1014.3
20260505200047 64 161 1.7 4.3 0.00 0.00 0.00 54 1014.2
20260505194546 63 348 2.6 5.2 0.00 0.00 0.00 53 1014.1
20260505193043 64 294 2.6 5.2 0.00 0.00 0.00 55 1014.1
20260505191606 63 265 1.7 4.3 0.00 0.00 0.00 57 1014.2
20260505190049 63 261 2.6 6.1 0.00 0.00 0.00 55 1014.0
20260505184539 63 310 1.7 7.0 0.00 0.00 0.00 57 1013.9
20260505183043 63 236 2.6 7.8 0.00 0.00 0.00 57 1013.8
20260505181542 63 317 0.9 3.5 0.00 0.00 0.00 57 1013.7
20260505180059 61 254 0.9 2.6 0.00 0.00 0.00 59 1013.5
20260505174551 61 0 1.7 3.5 0.00 0.00 0.00 60 1013.5
20260505173041 60 150 1.7 4.3 0.00 0.00 0.00 65 1013.4
20260505171536 60 180 1.7 4.3 0.00 0.00 0.00 63 1013.3
20260505170039 59 186 1.7 4.3 0.00 0.00 0.00 65 1013.2
20260505164540 59 173 1.7 5.2 0.00 0.00 0.00 66 1013.2
20260505163037 58 227 0.9 3.5 0.00 0.00 0.00 69 1013.0
20260505161540 58 292 0.9 3.5 0.00 0.00 0.00 71 1013.1
20260505153042 54 136 0.0 1.7 0.00 0.00 0.00 78 1012.7
20260505151543 53 0 0.0 0.0 0.00 0.00 0.00 81 1012.8
20260505124545 45 0 0.0 0.0 0.00 0.00 0.00 88 1011.3
20260505123040 45 0 0.0 0.0 0.00 0.00 0.00 88 1011.3
20260505121539 45 0 0.0 0.0 0.00 0.00 0.00 87 1011.3
20260505120035 46 0 0.0 0.0 0.00 0.00 0.00 86 1011.4
20260505114536 47 291 0.0 0.9 0.00 0.00 0.00 86 1011.5
20260505113050 46 0 0.0 0.0 0.00 0.00 0.00 87 1011.4
20260505111540 46 0 0.0 0.0 0.00 0.00 0.00 87 1011.4
20260505101558 47 291 0.0 1.7 0.00 0.00 0.00 84 1011.4
20260505100058 48 0 0.0 0.9 0.00 0.00 0.00 80 1011.3
20260505094540 51 291 0.0 0.9 0.00 0.00 0.00 80 1011.4
20260505093040 50 0 0.0 0.9 0.00 0.00 0.00 82 1011.3
20260505091536 49 0 0.0 0.0 0.00 0.00 0.00 83 1011.1
20260505090041 49 0 0.0 1.7 0.00 0.00 0.00 83 1011.0
20260505084538 49 0 0.0 0.0 0.00 0.00 0.00 83 1011.0
20260505083040 51 0 0.0 0.0 0.00 0.00 0.00 81 1011.0
20260505081546 52 0 0.0 1.7 0.00 0.00 0.00 80 1011.1
20260505080046 52 0 0.0 0.0 0.00 0.00 0.00 78 1010.9
20260505074542 52 0 0.0 0.0 0.00 0.00 0.00 79 1010.9
20260505073041 52 0 0.0 0.9 0.00 0.00 0.00 80 1011.0
20260505071548 52 0 0.0 0.0 0.00 0.00 0.00 79 1011.1
20260505070040 54 0 0.0 0.0 0.00 0.00 0.00 75 1011.2
20260505064538 54 291 0.9 1.7 0.00 0.00 0.00 75 1011.2
20260505063049 55 0 0.0 1.7 0.00 0.00 0.00 73 1011.2
20260505061545 54 0 0.0 0.0 0.00 0.00 0.00 75 1011.0
20260505060043 54 0 0.0 0.0 0.00 0.00 0.00 74 1011.0
20260505054546 55 0 0.0 0.0 0.00 0.00 0.00 71 1011.1
20260505053048 57 0 0.0 2.6 0.00 0.00 0.00 68 1011.1
20260505051544 56 0 0.0 0.0 0.00 0.00 0.00 71 1011.1
20260505041539 60 0 0.0 1.7 0.00 0.00 0.00 61 1011.1
20260505040046 63 0 0.0 1.7 0.00 0.00 0.00 57 1011.2
20260505034546 64 0 0.0 0.9 0.00 0.00 0.00 56 1011.3